CST,Max TemperatureF,Mean TemperatureF,Min TemperatureF,Max Dew PointF,MeanDew PointF,Min DewpointF,Max Humidity, Mean Humidity, Min Humidity, Max Sea Level PressureIn, Mean Sea Level PressureIn, Min Sea Level PressureIn, Max VisibilityMiles, Mean VisibilityMiles, Min VisibilityMiles, Max Wind SpeedMPH, Mean Wind SpeedMPH, Max Gust SpeedMPH,PrecipitationIn, CloudCover, Events, WindDirDegrees
2012-1-1,,,,,,,,,,,,,,,,,,,,,,
2012-1-2,,,,,,,,,,,,,,,,,,,,,,
2012-1-3,,,,,,,,,,,,,,,,,,,,,,
2012-1-4,,,,,,,,,,,,,,,,,,,,,,
2012-1-5,,,,,,,,,,,,,,,,,,,,,,
2012-1-6,,,,,,,,,,,,,,,,,,,,,,
2012-1-7,,,,,,,,,,,,,,,,,,,,,,
2012-1-8,,,,,,,,,,,,,,,,,,,,,,
2012-1-9,,,,,,,,,,,,,,,,,,,,,,
2012-1-10,,,,,,,,,,,,,,,,,,,,,,
2012-1-11,,,,,,,,,,,,,,,,,,,,,,
2012-1-12,24,22,19,16,13,10,80,63,59,30.05,30.02,29.99,10,10,10,18,11,26,0.00,4,,278
2012-1-13,37,27,17,10,5,1,58,41,26,30.17,30.11,30.04,10,10,9,12,7,,0.00,0,,276
2012-1-14,46,38,30,25,22,12,60,50,42,30.24,30.12,30.00,10,10,9,21,9,26,0.00,0,,272
2012-1-15,57,42,26,28,25,21,86,54,29,30.25,30.15,30.01,10,10,10,21,8,28,0.00,0,,155
2012-1-16,66,60,53,55,50,37,77,69,54,29.97,29.85,29.75,10,10,10,28,18,37,0.00,6,,201
2012-1-17,64,46,28,55,27,16,77,61,41,30.31,30.09,29.73,10,10,10,23,15,34,0.00,1,,322
2012-1-18,42,30,17,19,16,12,86,59,34,30.33,30.15,29.94,10,10,10,13,4,16,0.00,0,,182
2012-1-19,55,42,28,34,25,18,74,55,38,29.94,29.88,29.83,10,10,8,12,6,,0.00,0,,107
2012-1-20,59,46,33,48,37,25,87,75,67,29.91,29.77,29.65,10,9,5,16,8,22,0.00,4,,87
2012-1-21,44,32,19,27,20,12,86,67,46,30.10,30.03,29.91,10,10,3,16,9,20,0.00,1,,55
2012-1-22,60,50,39,52,43,28,87,74,41,29.81,29.62,29.48,10,10,6,24,13,37,0.00,6,,186
2012-1-23,53,43,33,30,27,21,81,55,28,30.03,29.94,29.75,10,10,4,21,13,31,0.00,2,,277
2012-1-24,64,46,28,28,23,19,80,47,19,30.19,30.12,30.07,10,10,10,15,4,18,0.00,0,,125
2012-1-25,48,44,39,39,38,25,93,87,40,30.11,30.00,29.88,10,9,4,17,9,22,1.47,8,,75
2012-1-26,51,46,41,39,38,25,93,82,37,29.89,29.85,29.82,10,9,3,14,6,18,0.03,6,,356
2012-1-27,53,40,26,30,26,21,93,60,33,29.98,29.92,29.84,10,10,10,14,4,22,0.00,1,,164
2012-1-28,44,35,26,27,20,14,74,52,29,30.43,30.34,30.16,10,10,10,17,9,24,0.00,0,,302
2012-1-29,55,42,30,27,22,18,64,47,29,30.34,30.29,30.22,10,10,10,17,8,22,0.00,0,,224
2012-1-30,64,50,37,43,33,23,61,50,42,30.20,30.11,30.02,10,10,9,18,9,30,0.00,0,,190
2012-1-31,62,58,55,52,49,43,88,71,59,30.03,29.99,29.93,10,10,10,22,14,34,0.00,8,,201